Reportages photos

Inscriptions en ligne

Connexion

Femmes

FEMMES FETE DE LA FRAISE SAMER du 14/06/16 (Reelle 4,5)
Rang Dossard Nom Prénom Temps Cat Rang Cat Ecart Ecart Cat Club Vitesse Km/h Temps au Km
1 201 MENUGE SALOME 00:19:52 JUF 1 00:00:00 00:00:00 ENTENTE MARITIME ATHL. 13,591 04:25
2 209 SPILLIAERT FLORENCE 00:20:46 VEF 1 00:00:54 00:00:00 LE DRAPEAU 13,002 04:37
3 241 HODIQUE MYRIAM 00:22:01 VEF 2 00:02:09 00:01:15 TEAM TRAIL 62 12,263 04:54
4 227 DELETOILLE PAULINE 00:22:10 SEF 1 00:02:18 00:00:00 LE DRAPEAU 12,180 04:56
5 237 PETIT JEANNE-ESTELLE 00:22:22 VEF 3 00:02:30 00:01:36 - 12,072 04:58
6 213 CARON-ROGEE CHRISTELLE 00:23:47 VEF 4 00:03:55 00:03:01 LE DRAPEAU 11,352 05:17
7 234 DULOT PASCALINE 00:23:54 VEF 5 00:04:02 00:03:08 SPORT PLUS 11,297 05:19
8 230 BENSE BOULY STEPHANIE 00:23:56 VEF 6 00:04:04 00:03:10 NON LICENCIE 11,281 05:19
9 243 TAILLARDAS FLAVIE 00:24:00 SEF 2 00:04:08 00:01:50 CAC CALOTERIE 11,250 05:20
10 233 GRESSIER DELPHINE 00:24:19 VEF 7 00:04:27 00:03:33 TEAM TRAIL 62 11,103 05:24
11 208 BRANLY SABRINA 00:24:29 SEF 3 00:04:37 00:02:19 LE DRAPEAU 11,028 05:26
12 216 SERGENT SOPHIE 00:24:33 VEF 8 00:04:41 00:03:47 COLEMBERT 10,998 05:27
13 218 DUSSART MURIEL 00:24:43 VEF 9 00:04:51 00:03:57 COLEMBERT 10,924 05:30
14 211 RINGARD MARIE-CHARLOTTE 00:24:47 SEF 4 00:04:55 00:02:37 - 10,894 05:30
15 204 MARTEL VANESSA 00:24:55 VEF 10 00:05:03 00:04:09 - 10,836 05:32
16 226 DAUTREVAUX CAROLINE 00:24:56 VEF 11 00:05:04 00:04:10 ATHLETISME CLUB OUTREAU 10,829 05:32
17 236 DENIS CORINNE 00:24:58 VEF 12 00:05:06 00:04:12 SPORT PLUS 10,814 05:33
18 231 BRIDOUX CHRISTINE 00:24:58 VEF 13 00:05:06 00:04:12 SPORT PLUS 10,814 05:33
19 215 MAZOUAT CAMILLE 00:26:04 SEF 5 00:06:12 00:03:54 COLEMBERT 10,358 05:48
20 202 MODOLO FANNY 00:26:05 VEF 14 00:06:13 00:05:19 LE DRAPEAU 10,351 05:48
21 228 SELLIER DELPHINE 00:26:09 VEF 15 00:06:17 00:05:23 - 10,325 05:49
22 229 DUHAMEL NATHALIE 00:26:09 VEF 16 00:06:17 00:05:23 - 10,325 05:49
23 221 LIVINGSTON DEBORAH 00:26:19 JUF 2 00:06:27 00:06:27 FARIGOUL TEAM 10,260 05:51
24 235 BUCHET LAURENCE 00:26:37 SEF 6 00:06:45 00:04:27 CULTURE DANSE ETAPLES 10,144 05:55
25 232 MARIQUE PERRINE 00:26:38 JUF 3 00:06:46 00:06:46 COLEMBERT 10,138 05:55
26 239 MAGNIER BEATRICE 00:26:41 VEF 17 00:06:49 00:05:55 SAINT MARTIN ATHLETISME 10,119 05:56
27 219 MAILLOT MELANIE 00:26:51 SEF 7 00:06:59 00:04:41 ATHLETISME CLUB OUTREAU 10,056 05:58
28 206 LANGLOIS DELPHINE 00:27:05 VEF 18 00:07:13 00:06:19 ATHLETIQUE CLUB CAPELLOIS 9,969 06:01
29 240 PREMEAU CHRISTINE 00:27:13 VEF 19 00:07:21 00:06:27 LE DRAPEAU 9,920 06:03
30 225 MONFLIER AURELIE 00:28:26 SEF 8 00:08:34 00:06:16 - 9,496 06:19
31 212 LALLOYEAU AURELIE 00:29:31 SEF 9 00:09:39 00:07:21 BOULOGNE ATHLETIC CLUB 9,147 06:34
32 205 NOEL LUDIVINE 00:29:56 VEF 20 00:10:04 00:09:10 ATHLETIQUE CLUB CAPELLOIS 9,020 06:39
33 207 CALOIN SOPHIE 00:29:58 VEF 21 00:10:06 00:09:12 BOULOGNE ATHLETIQUE CLUB 9,010 06:40
34 217 CAULIER ANGELIQUE 00:30:51 VEF 22 00:10:59 00:10:05 COLEMBERT 8,752 06:51
35 224 LEVEL SANDY 00:30:59 SEF 10 00:11:07 00:08:49 - 8,714 06:53
36 351 CORNE FRANCOISE 00:31:27 VEF 23 00:11:35 00:10:41 AMICALE HOSPITALIERS BOULOGNE 8,585 06:59
37 238 MAILLARD NADINE 00:32:00 VEF 24 00:12:08 00:11:14 SAINT MARTIN ATHLETISME 8,438 07:07
38 203 LIBERT EVELYNE 00:33:01 VEF 25 00:13:09 00:12:15 LE DRAPEAU 8,178 07:20
39 210 LIGNIER MARIE FRANCE 00:34:16 VEF 26 00:14:24 00:13:30 - 7,879 07:37
40 214 BELDOF LYDIE 00:34:20 VEF 27 00:14:28 00:13:34 - 7,864 07:38
41 223 ANTOINE SANDRINE 00:34:20 VEF 28 00:14:28 00:13:34 FARIGOUL'TEAM 7,864 07:38
42 222 VANDEWALLE CELINE 00:34:20 SEF 11 00:14:28 00:12:10 FARIGOUL TEAM 7,864 07:38
43 220 MAQUINGHEN VALERIE 00:34:20 VEF 29 00:14:28 00:13:34 FARIGOUL'TEAM 7,864 07:38
Novembre 2017
Lun Mar Mer Jeu Ven Sam Dim
1
2
3
4
5
6
7
8
9
10
11
12
13
14
15
16
17
18
19
20
21
22
23
24
25
27
28
29
30